Location: Schommer Observatory
(40.5200°N, 74.4500°W)
Time: 09:43:17
(UTC-04:00)

Tiangong 1 - Pass Details

Date: 16 October 2017
Orbit: 292 x 319 km, 42.8° (Epoch: 22 October)

Event Time Altitude Azimuth Distance (km) Brightness Sun altitude
Rises 18:51:23 0° 284° (WNW) 2,050 6.3 -7.5°
Reaches altitude 10° 18:53:26 10° 277° (W) 1,213 5.2 -7.9°
Maximum altitude 18:56:02 42° 204° (SSW) 460 1.7 -8.4°
Drops below altitude 10° 18:58:35 10° 131° (SE) 1,194 3.1 -8.9°
Enters shadow 18:59:02 - 129° (SE) 1,373 3.4 -9.0°
